Regional Weather Roundup
Issued by NWS Upton, NY

Current Version | Previous Version | Text Only | Print | Product List | Glossary On
Versions: 1 2 3 4 5 6 7 8 9 10 11 12 13 14 15 16 17 18 19 20 21 22 23 24 25 26 27 28 29 30 31 32 33 34 35 36 37 38 39 40 41 42 43 44 45 46 47 48 49 50
000 ASUS41 KOKX 240108 RWROKX REGIONAL WEATHER ROUNDUP NATIONAL WEATHER SERVICE NEW YORK NY 800 PM EST MON JAN 23 2017 NOTE: "FAIR" INDICATES FEW OR NO CLOUDS BELOW 12,000 FEET WITH NO SIGNIFICANT WEATHER AND/OR OBSTRUCTIONS TO VISIBILITY. NYZ071-072-176-178-NJZ106-104-240200- NEW YORK CITY METRO AREA CITY SKY/WX TMP DP RH WIND PRES REMARKS Central Park LGT RAIN 36 34 92 NE17G28 29.64F FOG WCI 26 Wall St Helipt RAIN 38 36 92 NE21G37 29.60F WCI 28 LaGuardia APRT RAIN 38 35 89 NE25G31 29.63F WCI 27 Kennedy INTL RAIN 38 35 89 NE29G38 29.60F FOG WCI 26 Breezy Point N/A 37 N/A N/A NE22G32 N/A WCI 27 Newark/Liberty RAIN 37 34 89 NE23G32 29.62F FOG WCI 26 Teterboro RAIN 37 34 89 N13G21 29.64 FOG WCI 29 $$ NYZ177-179-078>081-240200- LONG ISLAND NEW YORK CITY SKY/WX TMP DP RH WIND PRES REMARKS Jones Beach N/A 37 N/A N/A NE33G40 N/A WCI 24 Matinecock PT NOT AVBL Farmingdale RAIN 38 35 89 NE24G38 29.62F FOG WCI 27 MacArthur/ISP RAIN 38 36 92 NE25G38 29.62F FOG WCI 27 Shirley RAIN 37 37 100 NE14G28 29.64F FOG WCI 28 Westhampton RAIN 38 35 89 NE21G39 29.64F FOG WCI 28 Southampton NOT AVBL Bridgehampton NOT AVBL East Hampton RAIN 38 37 94 NE21G37 29.66F WCI 28 Montauk N/A 40 38 93 NE23G35 29.67R WCI 30 $$ NYZ052-065-067-240200- HUDSON VALLEY CITY SKY/WX TMP DP RH WIND PRES REMARKS White Plains RAIN 35 32 88 NE10G20 29.64F FOG WCI 27 Newburgh LGTSLEET 34 32 93 NE17G25 29.72F FOG WCI 23 Montgomery RAIN 34 30 85 NE16 29.70F FOG WCI 24 Poughkeepsie RAIN 33 30 88 N8 29.74F FOG WCI 26 Albany LGTSLEET 34 26 72 N8 29.86F WCI 27 $$ NJZ001-105-106-008-010-013-015-019>022-104-240200- NEW JERSEY CITY SKY/WX TMP DP RH WIND PRES REMARKS Newark/Liberty RAIN 37 34 89 NE23G32 29.62F FOG WCI 26 Teterboro RAIN 37 34 89 N13G21 29.64 FOG WCI 29 Caldwell RAIN 36 33 89 NE13G24 29.64F FOG WCI 27 Somerville HVY RAIN 37 33 85 NE10G23 29.59F FOG WCI 30 Linden RAIN 37 34 89 NE15G26 29.62F WCI 28 Sussex RAIN 33 32 96 NE16G23 29.66F FOG WCI 23 Andover N/A 33 31 92 NE13G22 29.63F WCI 24 Trenton RAIN 37 35 92 NE21G28 29.54F FOG WCI 26 Millville CLOUDY 42 39 89 NE26G43 29.43S Atlantic City CLOUDY 43 39 86 NE24G41 29.45F Wrightstown LGT RAIN 38 36 92 NE21G35 29.51F WCI 27 Toms River LGT RAIN 39 37 92 NE32G41 29.54F WCI 27 Belmar RAIN 38 36 92 NE23G37 29.57F WCI 27 $$ PAZ047>061-062-071-240200- EASTERN PENNSYLVANIA CITY SKY/WX TMP DP RH WIND PRES REMARKS Philadelphia CLOUDY 39 34 82 NE24G31 29.52F WCI 28 Allentown LGT RAIN 36 31 82 NE16 29.59F WCI 26 Scranton FRZ RAIN 34 32 92 NE13 29.60F FOG WCI 25 $$ CTZ002-004>006-009-010-012-RIZ004-006-007-MAZ004-011-015-240200- SOUTHERN NEW ENGLAND IN CT CITY SKY/WX TMP DP RH WIND PRES REMARKS Bradley INTL SLEET 34 30 85 N18G24 29.79F FOG WCI 23 Hartford RAIN 34 32 92 N12 29.78R FOG WCI 25 Danbury RAIN 34 31 88 NE13G23 29.70F FOG WCI 25 Wtrbury/Oxford LGTSLEET 34 28 80 NE17G30 29.68F VSB 3/4 WCI 23 Bridgeport RAIN 37 33 85 NE16G25 29.69F FOG WCI 28 Meriden RAIN 35 31 85 N9 29.75R FOG WCI 28 New Haven RAIN 35 32 88 NE15 29.69F FOG WCI 25 Chester LGT SNOW 36 34 93 NE15G24 29.69F WCI 26 Groton RAIN 38 35 89 NE24G38 29.68R FOG WCI 27 Wilimantic RAIN 37 33 85 NE20G35 29.74F FOG WCI 27 IN RI CITY SKY/WX TMP DP RH WIND PRES REMARKS Providence LGT RAIN 37 34 89 NE22G33 29.77F FOG WCI 26 Block Island NOT AVBL Westerly LGT RAIN 38 34 85 NE17G30 29.70R FOG WCI 28 IN MA CITY SKY/WX TMP DP RH WIND PRES REMARKS Boston LGT RAIN 37 35 92 NE33G43 29.88F WCI 24 Worcester LGT SNOW 31 28 89 NE14G26 29.80S FOG WCI 21 Westfield RAIN 34 29 82 NE18G25 29.82S WCI 23 Provincetown LGT RAIN 39 37 92 E31G41 29.82F FOG WCI 27 Nantucket RAIN 42 39 89 E29G44 29.69F FOG $$ ANZ330-335-338-340-345-350-353-355-240200- COASTAL MARINE OBSERVATIONS STATION/POSITION TIME SKY/WX TEMP WIND PRES VSBY WAVE AIR SEA DIR/SP/G HT/PER (UTC) (F) (DEG/KT/KT) (MB) (MI) (FT/S) NY HARB ENTRANCE 2350 40 43 40/ 33/ 39 1000.4 16/11 20 S FIRE ISLAND 2350 42 45 50/ 35/ 43 999.1 20/11 GREAT SOUTH BAY NOT AVBL 23 SSW MONTAUK P 2350 42 45 70/ 37/ 45 1001.4 16/10 15 E BARNEGAT LI 0030 47 N/A 19/11 HUDSON CANYON 2350 51 51 994.4 24/11 KINGS POINT 0030 37 39 1003.7 EXECUTION ROCKS 0045 38 40/ 21/ 29 N/A CENTRAL LI SOUND 0015 39 60/ 23/ 27 N/A 6/ 5 EASTERN LI SOUND NOT AVBL ROBBINS REEF 0030 38 40/ 24/ 28 1003.1 $$ >>>>>>>>>>>>>>>>>>>>>>>>>>>> KEY <<<<<<<<<<<<<<<<<<<<<<<<<<< > < > SKY/WX - Sky Condition/Present Weather < > TMP - Temperature in Fahrenheit < > DP - Dew Point in Fahrenheit < > RH - Relative Humidity in Percent < > WIND - Direction (from) and Speed in MPH < > PRES - Mean Sea Level Pressure (inches of Hg) < > WCI - Wind Chill Index < > VSB - VISIBILITY IN MILES < > HX - HEAT INDEX < > TC - TEMPERATURE IN CELSIUS < > VRB - VARIABLE WIND DIRECTION < > < >>>>>>>>>>>>>>>>>>>>>>>>>>>> KEY <<<<<<<<<<<<<<<<<<<<<<<<<<<

USA.gov is the U.S. government's official web portal to all federal, state and local government web resources and services.